Location: �perlecques
(50.8057°N, 2.1521°E)
Time: 10:38:48
(UTC+00:00)

Vanguard 1 Rocket - Pass Details

Date: 07 August 2021
Orbit: 650 x 4226 km, 34.3° (Epoch: 16 September)

Event Time Altitude Azimuth Distance (km) Brightness Sun altitude
Rises 06:46:38 0° 210° (SSW) 8,431 12.0 20.3°
Reaches altitude 10° 06:53:52 10° 201° (SSW) 7,413 11.9 21.5°
Maximum altitude 07:13:01 30° 152° (SSE) 5,164 11.9 24.5°
Drops below altitude 10° 07:26:54 10° 100° (E) 5,414 13.2 26.7°
Sets 07:31:00 0° 90° (E) 5,956 12.8 27.3°
